Regional Weather Roundup
Issued by NWS

Home | Current Version | Previous Version | Graphics & Text | Print | Product List | Glossary On
Versions: 1 2 3 4 5 6 7 8 9 10 11 12 13 14 15 16 17 18 19 20 21 22 23 24 25 26 27 28 29 30 31 32 33 34 35 36 37 38 39 40 41 42 43 44 45 46 47 48 49 50
000
ASUS43 KLOT 110200
RWRIL

ILLINOIS REGIONAL WEATHER ROUNDUP
NATIONAL WEATHER SERVICE CHICAGO/ROMEOVILLE IL
900 PM CDT THU JUL 10 2014

NOTE: "FAIR" INDICATES FEW OR NO CLOUDS BELOW 12,000 FEET WITH NO
SIGNIFICANT WEATHER AND/OR OBSTRUCTIONS TO VISIBILITY.

* THESE STATIONS ARE NOT UNDER NWS QUALITY CONTROL. THEY ALSO MAY NOT
  REPORT WEATHER SUCH AS PRECIPITATION OR FOG.

ILZ001-002-007-009-015-016-024-110300-
NORTHWEST ILLINOIS

CITY           SKY/WX    TMP DP  RH WIND       PRES   REMARKS
MOLINE         PTCLDY    69  61  75 S3        30.11R
STERLING*      CLEAR     70  61  73 S3        30.14R
$$

ILZ003-004-008-010-011-017-018-110300-
NORTH CENTRAL ILLINOIS

CITY           SKY/WX    TMP DP  RH WIND       PRES   REMARKS
ROCKFORD       PTCLDY    70  57  63 S6        30.15R
FREEPORT*      CLEAR     64  60  87 S5        30.16R
$$

ILZ005-006-012>014-019>023-110300-
NORTHEAST ILLINOIS

CITY           SKY/WX    TMP DP  RH WIND       PRES   REMARKS
CHICAGO-OHARE  PTCLDY    69  48  47 SE10      30.15S
CHICAGO-MIDWAY PTCLDY    72  49  44 E7        30.15S
AURORA         CLEAR     67  56  67 SE6       30.15R
LANSING*       CLEAR     67  48  50 E5        30.16S
WAUKEGAN       CLEAR     64  54  69 CALM      30.16R
DUPAGE AIRPORT CLEAR     69  52  54 SE6       30.15R
WHEELING       CLEAR     69  51  52 SE3       30.17R
NORTHERLY ISL    N/A     67  56  67 E5          N/A
$$

LMZ740>746-110300-
SOUTHERN LAKE MICHIGAN

STATION/POSITION SKY/WX   TEMP    WIND        PRES    VSBY  WAVE
                          AIR SEA DIR/SP/G                  HT/PER
                          (F)     (DEG/KT/KT) (MB)    (MI)  (FT/S)
SOUTHERN BUOY              64 62   CALM  /  2 1021.1F         0
WAUKEGAN HARBOR            64     200/  5/  8 1022.0S
HARRISON CRIB              69     140/  7/  8   N/A
BURNHAM HARBOR             67     110/  5/  7   N/A
CALUMET HARBOR             69      80/  4/  5 1021.8F
MICHIGAN CITY              69      40/  7/  9   N/A
$$

ILZ025>027-034>036-040-047-049-050-058-095>099-110300-
WEST-CENTRAL ILLINOIS

CITY           SKY/WX    TMP DP  RH WIND       PRES   REMARKS
QUINCY         PTCLDY    72  57  59 E6        30.11R
GALESBURG*     PTCLDY    71  61  71 CALM      30.13R
MACOMB*        PTCLDY    67  61  82 SE5       30.14R
$$

ILZ028>032-037-038-041>044-048-051>054-059>061-110300-
CENTRAL ILLINOIS

CITY           SKY/WX    TMP DP  RH WIND       PRES   REMARKS
DECATUR        CLEAR     68  61  78 CALM      30.14R
PEORIA         CLEAR     73  56  54 SE5       30.13S
SPRINGFIELD    CLEAR     70  57  63 E6        30.13R
TAYLORVILLE    NOT AVBL
$$

ILZ033-039-045-046-055>057-062-063-110300-
EAST-CENTRAL ILLINOIS

CITY           SKY/WX    TMP DP  RH WIND       PRES   REMARKS
CHAMPAIGN      CLEAR     67  58  72 E5        30.15R
MATTOON        CLEAR     70  56  61 NE3       30.13R
$$

ILZ079-100>102-110300-
SOUTHWEST ILLINOIS

CITY           SKY/WX    TMP DP  RH WIND       PRES   REMARKS
ALTON          CLEAR     72  59  64 CALM      30.11R
BELLEVILLE     CLEAR     71  62  72 NW2       30.10R
CAHOKIA*       CLEAR     72  58  61 CALM      30.10R
SPARTA*        CLEAR     70  61  73 CALM      30.11R
$$

ILZ064>066-069>071-074>076-080>082-084>086-088>090-092>094-110300-
SOUTH-CENTRAL ILLINOIS

CITY           SKY/WX    TMP DP  RH WIND       PRES   REMARKS
CARBONDALE     PTCLDY    70  66  87 CALM      30.10R
MT. VERNON     CLEAR     68  61  77 NE3       30.12R
SALEM*         CLEAR     72  62  69 CALM      30.12S
$$

ILZ067-068-072-073-078-083-087-091-110300-
SOUTHEAST ILLINOIS

CITY           SKY/WX    TMP DP  RH WIND       PRES   REMARKS
HARRISBURG*    PTCLDY    70  66  88 CALM      30.12R
ROBINSON*      CLEAR     69  62  78 NE3       30.14R
$$

ABBREVIATIONS USED IN REMARKS
   TC - TEMPERATURE IN CELSIUS
  WCI - WIND CHILL INDEX
   HX - HEAT INDEX
  VSB - VISIBILITY
$$



USA.gov is the U.S. government's official web portal to all federal, state and local government web resources and services.